Find Local Weather

World > North America > United States > Florida

Wmaf Radio Tower, Florida Regional Weather

Lat: 30.47N, Lon: 83.44W
Wx Zone: FLZ019
Warning FLW WEATHER ALERT - FLOOD STATEMENT (More Info. Click Here) Warning
Feedback
Expires:201812111000;;622240
ASUS42 KTBW 110916
RWRFL 
FLORIDA REGIONAL WEATHER ROUNDUP
NATIONAL WEATHER SERVICE TAMPA BAY RUSKIN FL
400 AM EST TUE DEC 11 2018

NOTE: "FAIR" INDICATES FEW OR NO CLOUDS BELOW 12,000 FEET WITH NO
SIGNIFICANT WEATHER AND/OR OBSTRUCTIONS TO VISIBILITY.


FLZ011-016>038-118-127-128-134-139-239-111000-
NORTH FLORIDA
  
CITY           SKY/WX    TMP DP  RH WIND       PRES   REMARKS
MARIANNA       CLOUDY    42  38  85 NW12      30.28R WCI  36          
TALLAHASSEE    CLOUDY    44  39  82 NW8       30.26R WCI  39          
PERRY          CLOUDY    44  40  85 NW8       30.25S WCI  39          
LIVE OAK       CLOUDY    43  41  93 W6        30.22S WCI  39          
LAKE CITY      CLOUDY    43  37  81 W8        30.21S WCI  38          
GAINESVILLE    CLOUDY    44  38  79 NW7       30.24R WCI  40          
WILLISTON        N/A    N/A N/A N/A MISG        N/A                   
MAYPORT NAS    CLOUDY    46  41  82 W12       30.18R WCI  41          
JACKSONVILLE   CLOUDY    45  41  86 W10       30.18R WCI  40          
JAX NAS        CLOUDY    45  41  86 W8        30.20R WCI  41          
JAX CECIL      CLOUDY    45  41  87 MISG      30.20S                  
FERNANDINA BEA CLOUDY    45  41  88 W13       30.18S WCI  39          
ST AUGUSTINE   CLOUDY    45  40  82 W9        30.20S WCI  40          
PALM COAST     CLOUDY    45  41  85 NW8       30.19S WCI  41          

STATION/POSITION SKY/WX   TEMP    WIND        PRES    WAVE   SWELL
                          AIR SEA DIR/SP/G            HT/PER HT/PER
                          (F)     (DEG/KT/KT) (MB)    (FT/S) (FT/S)
SHELL POINT      NOT AVBL
KEATON BEACH               42     350/  6/  9 1024.4R
CEDAR KEY                  44      20/  9/ 10 1024.2R
FERNANDINA                 46 57  260/  7/ 10 1022.7R
30.7N   81.3W                 58                N/A     2/13   2/13
MAYPORT                    46 60  290/  9/ 13 1022.2R
31.4N   80.9W              45 60  310/ 16/ 19 1021.0R   3/ 3   2/ 9
ST AUGUSTINE               45 60  300/  6/  7 1022.5R

$$

SKY/WX - Weather  TMP - Temperature  DP - Dew Point  RH - Relative Humidity
WIND - Wind Direction/Speed PRES - Barometric Pressure